[[{"header":{"parameterUnit":"m.s-1","parameterCategory":1,"la1":30.2991,"la2":30.254,"lo1":-89.0895,"lo2":-89.0444,"dy":0.0017,"dx":0.0017,"nx":28,"ny":28,"refTime":"2023-03-29T21:00:00:Z","depth":0,"parameterNumber":2,"parameterNumberName":"U-component_of_WINDS"},"data":[0,0,0,0,0,0,0,0,0,0,0,0,0,0,0,0,0,0,0,0,0,0,0,0,0,0,0,0,0,0,0,0,0,0,0,0,0,0,0,0,0,0,0,0,0,0,0,0,0,0,0,0,0,0,0,0,0,0,-2.2736,-2.2736,0,-2.2793,-2.2794,-2.2795,-2.2702,-2.2699,-2.2696,-2.2693,-2.2753,-2.2758,-2.2762,0,0,0,0,0,0,0,0,0,0,0,0,0,-2.2547,-2.2551,-2.2736,-2.2736,-2.2737,-2.2793,-2.2794,-2.2795,-2.2703,-2.2699,-2.2695,-2.2691,-2.2752,-2.2757,-2.2763,0,0,0,0,0,0,0,0,0,0,0,0,0,-2.2619,-2.2552,-2.2736,-2.2698,-2.2695,-2.2793,-2.2794,-2.2795,-2.2703,-2.2699,-2.2694,-2.2689,-2.275,-2.2757,-2.2764,-2.2902,0,0,-2.2785,-2.2788,0,0,0,0,0,0,0,0,-2.2615,-2.2626,-2.2703,-2.2701,-2.2698,-2.2735,-2.275,-2.2831,-2.2705,-2.27,-2.2693,-2.2687,-2.2752,-2.2758,-2.2779,-2.2905,-2.2907,-2.2785,-2.2789,-2.2792,-2.2794,0,0,0,0,0,0,0,-2.261,-2.2623,-2.2758,-2.2704,-2.2701,-2.2678,-2.2683,-2.2765,-2.2752,-2.27,-2.2694,-2.2702,-2.2749,-2.2773,-2.278,-2.2908,-2.2785,-2.2791,-2.2795,-2.2798,-2.3149,-2.3154,0,0,0,0,0,0,-2.261,-2.262,-2.2757,-2.276,-2.2644,-2.2686,-2.2691,-2.2728,-2.2751,-2.275,-2.2706,-2.2697,-2.2764,-2.2772,-2.2782,-2.2945,-2.2792,-2.2799,-2.2803,-2.3144,-2.315,-2.3156,0,0,0,0,0,0,-2.2606,-2.2623,-2.2754,-2.2688,-2.2703,-2.2694,-2.2736,-2.2732,-2.2755,-2.2755,-2.2752,-2.2732,-2.276,-2.2772,-2.2872,-2.2946,-2.2802,-2.2808,-2.3138,-2.3146,-2.3153,-2.3272,0,0,0,0,0,0,-2.2601,-2.2622,-2.2674,-2.269,-2.2707,-2.2844,-2.2741,-2.2736,-2.2767,-2.2757,-2.2779,-2.2778,-2.2757,-2.2863,-2.2879,-2.2953,-2.2814,-2.3131,-2.3141,-2.315,-2.3262,-2.3283,-2.3302,0,0,0,0,0,-2.2595,-2.2706,-2.2678,-2.2695,-2.2772,-2.2848,-2.2858,-2.2831,-2.2774,-2.2826,-2.2826,-2.2778,-2.2935,-2.2874,-2.2892,-2.2968,-2.3126,-2.3138,-2.315,-2.3253,-2.3279,-2.3301,0,0,0,0,0,0,-2.27,-2.2708,-2.2676,-2.2796,-2.2822,-2.2833,-2.2898,-2.286,-2.2904,-2.2892,-2.2857,-2.2863,-2.2971,-2.2979,-2.2911,-2.3103,-2.3021,-2.3037,-2.3093,-2.3118,-2.3138,-2.3134,-2.2819,0,0,0,0,0,-2.2737,-2.2798,-2.2802,-2.2907,-2.2922,-2.2908,-2.294,-2.2917,-2.2943,-2.2954,-2.2961,-2.2989,-2.3044,-2.3081,-2.3132,-2.3262,-2.3266,-2.3324,-2.3344,-2.336,-2.3374,-2.3443,-2.3469,-2.3194,-2.3194,-2.3194,0,0,-2.2815,-2.2827,-2.2867,-2.2929,-2.2946,-2.3011,-2.2918,-2.299,-2.3037,-2.2965,-2.306,-2.3066,-2.3094,-2.321,-2.3261,-2.3221,-2.3451,-2.3375,-2.3388,-2.3393,-2.3458,-2.3484,-2.3507,-2.3202,-2.3201,-2.3199,0,0,-2.299,-2.3004,-2.3094,-2.3113,-2.314,-2.313,-2.3152,-2.3168,-2.3169,-2.3264,-2.3211,-2.3266,-2.3363,-2.3385,-2.3409,-2.3591,-2.3548,-2.3609,-2.3713,-2.3781,-2.3802,-2.3821,-2.3887,-2.391,-2.3623,-2.3623,-2.3623,0,-2.3083,-2.3177,-2.3145,-2.322,-2.3249,-2.3185,-2.3275,-2.3296,-2.3339,-2.3361,-2.3314,-2.3433,-2.3448,-2.3568,-2.3612,-2.3633,-2.3657,-2.3606,-2.3802,-2.3821,-2.3838,-2.39,-2.3924,-2.363,-2.3629,-2.3629,-2.3628,0,-2.3291,-2.3357,-2.3426,-2.3468,-2.3504,-2.3587,-2.3567,-2.3608,-2.3581,-2.3576,-2.3673,-2.3688,-2.3741,-2.3767,-2.3743,-2.3884,-2.3858,-2.3807,-2.3725,-2.3872,-2.3929,-2.3953,-2.364,-2.3638,-2.3636,-2.3634,0,0,-2.3535,-2.3557,-2.3583,-2.3601,-2.3627,-2.3677,-2.3757,-2.3808,-2.3843,-2.3875,-2.3941,-2.4023,-2.3976,-2.4004,-2.3981,-2.404,-2.4183,-2.3982,-2.3982,-2.4019,-2.434,-2.4379,-2.4407,-2.4155,-2.4159,-2.4163,-2.4338,0,-2.3708,-2.3845,-2.3818,-2.3952,-2.4013,-2.3953,-2.4022,-2.4045,-2.4042,-2.4094,-2.409,-2.4149,-2.4083,-2.4099,-2.4155,-2.4154,-2.4247,-2.4141,-2.4217,-2.422,-2.4212,-2.4437,-2.4478,-2.4643,-2.436,-2.4364,-2.4367,0,-2.393,-2.3969,-2.4109,-2.4124,-2.4148,-2.4211,-2.4255,-2.4305,-2.433,-2.4323,-2.4354,-2.4319,-2.4398,-2.4314,-2.4423,-2.4351,-2.438,-2.4384,-2.439,-2.4397,-2.4303,-2.445,-2.4695,-2.472,-2.4402,-2.4399,-2.4396,0,-2.4094,-2.4182,-2.4277,-2.4295,-2.4314,-2.436,-2.437,-2.439,-2.4422,-2.4461,-2.4481,-2.4529,-2.4556,-2.4593,-2.4572,-2.4513,-2.4685,-2.4599,-2.4682,-2.4683,-2.4722,-2.472,-2.4976,-2.474,-2.474,-2.4739,-2.4739,0,-2.4292,-2.438,-2.4351,-2.441,-2.4507,-2.4474,-2.4571,-2.4574,-2.4593,-2.4651,-2.4602,-2.4658,-2.4626,-2.468,-2.4664,-2.4756,-2.4769,-2.4766,-2.4761,-2.4771,-2.4771,-2.479,-2.4778,-2.4746,-2.4744,-2.4743,-2.4742,0,-2.4493,-2.4477,-2.4576,-2.4586,-2.4591,-2.4662,-2.467,-2.4725,-2.4718,-2.4792,-2.4808,-2.4797,-2.4857,-2.484,-2.4905,-2.4894,-2.5012,-2.4992,-2.5004,-2.4999,-2.5084,-2.5076,-2.5361,-2.5396,-2.5137,-2.514,-2.5142,0,-2.462,-2.4686,-2.4703,-2.4738,-2.4752,-2.481,-2.4842,-2.4812,-2.4848,-2.488,-2.4931,-2.4987,-2.503,-2.5129,-2.5128,-2.5177,-2.5158,-2.5255,-2.5166,-2.5174,-2.516,-2.5157,-2.5163,-2.5273,-2.5276,-2.5278,-2.528,0,-2.4848,-2.4837,-2.4885,-2.493,-2.497,-2.5005,-2.5035,-2.5066,-2.5039,-2.5081,-2.5142,-2.5175,-2.5241,-2.5298,-2.5343,-2.5353,-2.5313,-2.5308,-2.533,-2.5341,-2.5346,-2.5345,-2.5053,-2.5302,-2.53,-2.5298,-2.5297,-2.5296,-2.5016,-2.5072,-2.5093,-2.5148,-2.5167,-2.5196,-2.5248,-2.5247,-2.5296,-2.5348,-2.5327,-2.5397,-2.5419,-2.5475,-2.5492,-2.5546,-2.551,-2.5542,-2.555,-2.5558,-2.5569,-2.5336,-2.5554,-2.5554,-2.5553,-2.5553,-2.5552,0,-2.5242,-2.5252,-2.5303,-2.5346,-2.539,-2.5346,-2.5377,-2.5416,-2.5478,-2.5502,-2.5545,-2.5615,-2.5669,-2.5671,-2.5721,-2.5764,-2.5747,-2.5778,-2.5775,-2.5778,-2.5599,-2.5575,-2.5792,-2.5792,-2.5791,-2.5791,-2.5791,-2.5791,-2.5365,-2.5457,-2.5448,-2.555,-2.5558,-2.5626,-2.5647,-2.5674,-2.5693,-2.5772,-2.5817,-2.5817,-2.5832,-2.5883,-2.5931,-2.593,-2.5951,-2.599,-2.5982,-2.5815,-2.5791,-2.5768,-2.5746,-2.5995,-2.5995,-2.6157,-2.6159,-2.616]},{"header":{"parameterUnit":"m.s-1","parameterCategory":1,"la1":30.2991,"la2":30.254,"lo1":-89.0895,"lo2":-89.0444,"dy":0.0017,"dx":0.0017,"nx":28,"ny":28,"refTime":"2023-03-29T21:00:00:Z","depth":0,"parameterNumber":3,"parameterNumberName":"V-component_of_WINDS"},"data":[0,0,0,0,0,0,0,0,0,0,0,0,0,0,0,0,0,0,0,0,0,0,0,0,0,0,0,0,0,0,0,0,0,0,0,0,0,0,0,0,0,0,0,0,0,0,0,0,0,0,0,0,0,0,0,0,0,0,-1.7107,-1.7107,0,-1.7128,-1.7128,-1.7129,-1.7146,-1.7146,-1.7147,-1.7147,-1.7166,-1.7167,-1.7167,0,0,0,0,0,0,0,0,0,0,0,0,0,-1.7077,-1.7078,-1.7107,-1.7107,-1.7107,-1.7128,-1.7128,-1.7129,-1.7146,-1.7146,-1.7147,-1.7147,-1.7166,-1.7167,-1.7167,0,0,0,0,0,0,0,0,0,0,0,0,0,-1.7093,-1.7078,-1.7107,-1.7118,-1.712,-1.7128,-1.7128,-1.7129,-1.7146,-1.7146,-1.7147,-1.7147,-1.7166,-1.7167,-1.7167,-1.7165,0,0,-1.7169,-1.7169,0,0,0,0,0,0,0,0,-1.7093,-1.7095,-1.7116,-1.7118,-1.7119,-1.7135,-1.7125,-1.7141,-1.7146,-1.7136,-1.7147,-1.7147,-1.7156,-1.7157,-1.716,-1.7166,-1.7167,-1.7169,-1.7169,-1.7169,-1.717,0,0,0,0,0,0,0,-1.7091,-1.7094,-1.7115,-1.7117,-1.7118,-1.7122,-1.7124,-1.7128,-1.7144,-1.7137,-1.7138,-1.7141,-1.7156,-1.716,-1.7161,-1.7167,-1.7169,-1.7169,-1.717,-1.717,-1.7169,-1.7169,0,0,0,0,0,0,-1.7089,-1.7093,-1.7114,-1.7116,-1.7106,-1.7122,-1.7125,-1.7129,-1.7144,-1.7146,-1.714,-1.7141,-1.7159,-1.716,-1.7162,-1.7159,-1.7169,-1.717,-1.717,-1.717,-1.7169,-1.7169,0,0,0,0,0,0,-1.7088,-1.7091,-1.7114,-1.7105,-1.7108,-1.7122,-1.7127,-1.713,-1.7133,-1.7147,-1.7149,-1.7141,-1.7159,-1.7161,-1.7164,-1.716,-1.717,-1.7171,-1.717,-1.717,-1.7169,-1.7153,0,0,0,0,0,0,-1.7087,-1.709,-1.709,-1.7104,-1.7108,-1.7116,-1.7127,-1.713,-1.7134,-1.7136,-1.7148,-1.715,-1.7159,-1.7163,-1.7164,-1.716,-1.7171,-1.7171,-1.717,-1.7169,-1.7154,-1.7152,-1.715,0,0,0,0,0,-1.7086,-1.7085,-1.709,-1.7093,-1.7109,-1.7116,-1.7118,-1.7129,-1.7134,-1.7134,-1.7142,-1.715,-1.716,-1.7163,-1.7165,-1.7161,-1.7171,-1.717,-1.7169,-1.7155,-1.7152,-1.715,0,0,0,0,0,0,-1.707,-1.7087,-1.7093,-1.7097,-1.7105,-1.7119,-1.7119,-1.7127,-1.7133,-1.7134,-1.7146,-1.7149,-1.715,-1.7156,-1.7159,-1.7158,-1.7166,-1.7166,-1.7155,-1.7152,-1.7151,-1.7149,-1.7171,0,0,0,0,0,-1.7067,-1.7072,-1.7087,-1.7088,-1.7092,-1.7105,-1.7108,-1.7116,-1.7124,-1.7128,-1.7136,-1.7143,-1.7148,-1.7151,-1.7156,-1.7155,-1.7157,-1.7153,-1.7151,-1.715,-1.7149,-1.7147,-1.7145,-1.7167,-1.7167,-1.7167,0,0,-1.706,-1.707,-1.7073,-1.7085,-1.7092,-1.7096,-1.7107,-1.7112,-1.7114,-1.7128,-1.7131,-1.7137,-1.7146,-1.7146,-1.7147,-1.7151,-1.7143,-1.7149,-1.7148,-1.7148,-1.7146,-1.7144,-1.7142,-1.7166,-1.7166,-1.7166,0,0,-1.705,-1.7059,-1.7061,-1.7068,-1.7078,-1.7086,-1.7087,-1.7099,-1.7104,-1.7107,-1.7117,-1.712,-1.7128,-1.7133,-1.7137,-1.7127,-1.7134,-1.7128,-1.7119,-1.7117,-1.7115,-1.7114,-1.7108,-1.7107,-1.7128,-1.7128,-1.7128,0,-1.7041,-1.7048,-1.7061,-1.7064,-1.7068,-1.7081,-1.7082,-1.7087,-1.7099,-1.7101,-1.7106,-1.7115,-1.7122,-1.7123,-1.712,-1.7123,-1.7122,-1.7127,-1.7114,-1.7113,-1.7112,-1.7107,-1.7105,-1.7127,-1.7127,-1.7127,-1.7127,0,-1.7035,-1.704,-1.704,-1.7051,-1.7055,-1.7057,-1.7068,-1.7071,-1.7077,-1.7085,-1.7087,-1.7095,-1.7101,-1.7102,-1.7109,-1.7104,-1.7106,-1.7112,-1.712,-1.7109,-1.7104,-1.7103,-1.7125,-1.7126,-1.7126,-1.7126,0,0,-1.7017,-1.7033,-1.7033,-1.7037,-1.7049,-1.7052,-1.7054,-1.706,-1.7061,-1.7068,-1.7069,-1.7075,-1.708,-1.7084,-1.7092,-1.709,-1.7079,-1.7097,-1.7097,-1.7092,-1.7072,-1.7066,-1.7064,-1.7084,-1.7084,-1.7084,-1.7071,0,-1.7008,-1.7013,-1.7023,-1.7024,-1.7027,-1.7039,-1.704,-1.7046,-1.7052,-1.7055,-1.7062,-1.7065,-1.7073,-1.7075,-1.7074,-1.7081,-1.7075,-1.7082,-1.7084,-1.7083,-1.708,-1.7062,-1.7056,-1.7044,-1.7069,-1.7069,-1.7069,0,-1.6999,-1.7005,-1.7006,-1.7016,-1.7018,-1.7019,-1.7024,-1.7027,-1.7034,-1.7039,-1.7042,-1.705,-1.7051,-1.7059,-1.7059,-1.7063,-1.7064,-1.7067,-1.7067,-1.7067,-1.7075,-1.706,-1.704,-1.7038,-1.7067,-1.7067,-1.7067,0,-1.6984,-1.6992,-1.6994,-1.6997,-1.7009,-1.7009,-1.7014,-1.7021,-1.7023,-1.7028,-1.7029,-1.7033,-1.7036,-1.7038,-1.7046,-1.7051,-1.7045,-1.7053,-1.7047,-1.7047,-1.7045,-1.7045,-1.7023,-1.7047,-1.7047,-1.7047,-1.7047,0,-1.6973,-1.6973,-1.6987,-1.6987,-1.6987,-1.6998,-1.6997,-1.7002,-1.7008,-1.7009,-1.7019,-1.7019,-1.7031,-1.7032,-1.7038,-1.7036,-1.7037,-1.704,-1.7041,-1.7038,-1.7038,-1.7038,-1.7039,-1.7047,-1.7047,-1.7047,-1.7047,0,-1.6956,-1.6966,-1.6967,-1.6978,-1.698,-1.6979,-1.6988,-1.6988,-1.6995,-1.6995,-1.6996,-1.7006,-1.7007,-1.7016,-1.7019,-1.7023,-1.7019,-1.7023,-1.7016,-1.7017,-1.701,-1.701,-1.6987,-1.6984,-1.7011,-1.7011,-1.7011,0,-1.6948,-1.6948,-1.6958,-1.696,-1.6964,-1.6966,-1.6969,-1.6979,-1.6981,-1.6987,-1.6986,-1.6989,-1.6991,-1.6993,-1.6999,-1.7002,-1.7005,-1.6997,-1.7005,-1.7001,-1.7003,-1.7002,-1.7001,-1.6995,-1.6994,-1.6994,-1.6994,0,-1.6932,-1.6937,-1.694,-1.6944,-1.6947,-1.6951,-1.6955,-1.6955,-1.6966,-1.6968,-1.6969,-1.6971,-1.6974,-1.6976,-1.6979,-1.6983,-1.6989,-1.6991,-1.6989,-1.6986,-1.6982,-1.6982,-1.701,-1.6991,-1.6992,-1.6992,-1.6992,-1.6992,-1.6919,-1.6919,-1.6926,-1.6928,-1.6932,-1.6936,-1.6936,-1.6942,-1.6944,-1.6947,-1.6953,-1.6953,-1.6958,-1.6963,-1.6965,-1.6965,-1.6969,-1.6967,-1.6966,-1.6965,-1.6963,-1.6983,-1.6966,-1.6966,-1.6966,-1.6966,-1.6966,0,-1.6903,-1.6907,-1.691,-1.6915,-1.6917,-1.6923,-1.6928,-1.6928,-1.6929,-1.6933,-1.6935,-1.6936,-1.6937,-1.6943,-1.6944,-1.6942,-1.6945,-1.6942,-1.6942,-1.6942,-1.696,-1.6961,-1.694,-1.694,-1.694,-1.694,-1.694,-1.694,-1.6895,-1.6894,-1.6899,-1.6899,-1.6903,-1.6904,-1.6906,-1.6908,-1.6911,-1.6912,-1.6913,-1.6917,-1.6921,-1.6922,-1.6923,-1.6925,-1.6924,-1.692,-1.6922,-1.6939,-1.6941,-1.6944,-1.6944,-1.692,-1.692,-1.6904,-1.6904,-1.6903]}]]